Location: Antioch
(38.0049°N, 121.8058°W)
Time: 03:52:51
(UTC+00:00)

Cosmos 1354 Rocket - Pass Details

Date: 25 May 2026
Orbit: 761 x 778 km, 74.0° (Epoch: 9 June)

Event Time Altitude Azimuth Distance (km) Brightness Sun altitude
Rises 05:58:58 0° 323° (NW) 3,229 8.7 -24.1°
Reaches altitude 10° 06:02:05 10° 304° (NW) 2,297 7.3 -24.4°
Maximum altitude 06:05:24 17° 264° (W) 1,836 6.2 -24.8°
Enters shadow 06:08:00 12° 231° (SW) 2,123 6.2 -25.0°
